Location: Lhota
(50.0887°N, 14.0116°E)
Time: 07:06:37
(UTC+00:00)

BREEZE-M R/B - Pass Details

Date: 19 May 2025
Orbit: 537 x 26537 km, 49.0° (Epoch: 12 June)

Event Time Altitude Azimuth Distance (km) Brightness Sun altitude
Rises 19:33:06 0° 270° (W) 15,159 10.4 -6.4°
Reaches altitude 10° 19:51:09 10° 273° (W) 9,707 9.4 -8.4°
Maximum altitude 20:13:00 83° 190° (S) 1,427 4.3 -10.8°
Drops below altitude 10° 20:17:42 10° 103° (ESE) 2,362 5.1 -11.3°
Enters shadow 20:17:58 - 103° (ESE) 2,480 5.2 -11.3°
